This is the latest recevied weather packets stored in our database for station/object DB0MOE-6. If no packets are shown the sender has not sent any weather packets the latest 1 day(s).
| Time | Temp. | Humidity | Pressure | Rain* | Wind** | Luminosity | Snow |
|---|---|---|---|---|---|---|---|
| 1778028082 | 13.89° C | 77% | 987.4 hPa | 0 mm | 0.89 m/s, 37° | - | - |
| 1778028022 | 13.89° C | 79% | 987.3 hPa | 0 mm | 0.45 m/s, 155° | - | - |
| 1778027962 | 13.89° C | 78% | 987.3 hPa | 0 mm | 0 m/s | - | - |
| 1778027902 | 13.89° C | 77% | 987.5 hPa | 0 mm | 0.45 m/s, 131° | - | - |
| 1778027842 | 13.89° C | 78% | 987.5 hPa | 0 mm | 0.45 m/s, 112° | - | - |
| 1778027782 | 13.33° C | 78% | 987.4 hPa | 0 mm | 0.45 m/s, 125° | - | - |
| 1778027722 | 13.33° C | 78% | 987.5 hPa | 0 mm | 0.45 m/s, 203° | - | - |
| 1778027662 | 13.33° C | 79% | 987.5 hPa | 0 mm | 0.45 m/s, 118° | - | - |
| 1778027602 | 13.33° C | 79% | 987.5 hPa | 0 mm | 0.45 m/s, 97° | - | - |
| 1778027542 | 13.33° C | 79% | 987.5 hPa | 0 mm | 0.45 m/s, 96° | - | - |
| 1778027482 | 13.33° C | 78% | 987.5 hPa | 0 mm | 0.45 m/s, 103° | - | - |
| 1778027422 | 13.33° C | 78% | 987.5 hPa | 0 mm | 0.45 m/s, 52° | - | - |
| 1778027362 | 13.33° C | 79% | 987.5 hPa | 0 mm | 0.45 m/s, 234° | - | - |
| 1778027302 | 13.33° C | 79% | 987.7 hPa | 0 mm | 0.45 m/s, 122° | - | - |
| 1778027242 | 13.33° C | 79% | 987.8 hPa | 0 mm | 0.45 m/s, 118° | - | - |
| 1778027182 | 13.33° C | 79% | 987.8 hPa | 0 mm | 0 m/s | - | - |
| 1778027121 | 13.33° C | 79% | 987.6 hPa | 0 mm | 0 m/s | - | - |
| 1778027061 | 13.33° C | 79% | 987.8 hPa | 0 mm | 0 m/s | - | - |
| 1778027001 | 13.33° C | 79% | 987.7 hPa | 0 mm | 0.45 m/s, 140° | - | - |
| 1778026941 | 13.33° C | 80% | 987.7 hPa | 0 mm | 0.45 m/s, 138° | - | - |
| 1778026881 | 12.78° C | 81% | 987.8 hPa | 0 mm | 0.45 m/s, 133° | - | - |
| 1778026821 | 12.78° C | 82% | 987.8 hPa | 0 mm | 0.45 m/s, 147° | - | - |
| 1778026761 | 12.78° C | 83% | 987.9 hPa | 0 mm | 0.45 m/s, 135° | - | - |
| 1778026701 | 12.78° C | 83% | 987.9 hPa | 0 mm | 0.45 m/s, 112° | - | - |
| 1778026641 | 12.78° C | 84% | 987.9 hPa | 0 mm | 0.45 m/s, 119° | - | - |
* Rain latest hour (hover to see other rain measurements)
** Current wind speed in m/s (hover to see current wind gust speed)